Weather reports worldwide

Advertisment
Termoli, Italy (16232): temperature & dewpoint: 15.05.2019 16:00:00 - 21.05.2019 16:00:00 (CEST)Termoli, Italy (16232): wind speed: 15.05.2019 16:00:00 - 21.05.2019 16:00:00 (CEST)Termoli, Italy (16232): wind direction: 15.05.2019 16:00:00 - 21.05.2019 16:00:00 (CEST)Termoli, Italy (16232): reduced air pressure: 15.05.2019 16:00:00 - 21.05.2019 16:00:00 (CEST)Termoli, Italy (16232): visibility: 15.05.2019 16:00:00 - 21.05.2019 16:00:00 (CEST)Termoli, Italy (16232): sunshine duration: 15.05.2019 16:00:00 - 21.05.2019 16:00:00 (CEST)
Date & Time tt [°C] td [°C] ff [km/h] ff [kn] dd ppp [hPa] vv [km] sd [min]
21.05.2019 16:00:00 - - - - - - - -
21.05.2019 15:00:00 - - - - - - - -
21.05.2019 14:00:00 23,0 18,5 8 4 ENE 1011,5 20 0
21.05.2019 13:00:00 - - - - - - - -
21.05.2019 12:00:00 - - - - - - - -
21.05.2019 11:00:00 22,4 15,3 8 4 NNE 1010,7 20 60
21.05.2019 10:00:00 - - - - - - - -
21.05.2019 09:00:00 - - - - - - - -
21.05.2019 08:00:00 19,4 13,8 15 8 SSW 1009,6 20 18
21.05.2019 07:00:00 - - - - - - - -
21.05.2019 06:00:00 - - - - - - - -
21.05.2019 05:00:00 - - - - - - - -
21.05.2019 04:00:00 - - - - - - - -
21.05.2019 03:00:00 - - - - - - - -
21.05.2019 02:00:00 - - - - - - - -
21.05.2019 01:00:00 - - - - - - - -
21.05.2019 00:00:00 - - - - - - - -
20.05.2019 23:00:00 - - - - - - - -
20.05.2019 22:00:00 - - - - - - - -
20.05.2019 21:00:00 - - - - - - - -
20.05.2019 20:00:00 20,4 7,7 18 10 SSW 1008,4 20 18
20.05.2019 19:00:00 - - - - - - - -
20.05.2019 18:00:00 - - - - - - - -
20.05.2019 17:00:00 21,4 6,5 16 9 SW 1009,0 20 48
20.05.2019 16:00:00 - - - - - - - -
20.05.2019 15:00:00 - - - - - - - -
20.05.2019 14:00:00 23,8 6,6 29 16 SSW 1007,8 20 42
20.05.2019 13:00:00 - - - - - - - -
20.05.2019 12:00:00 - - - - - - - -
20.05.2019 11:00:00 22,4 9,6 9 5 WNW 1007,6 20 60
20.05.2019 10:00:00 - - - - - - - -
20.05.2019 09:00:00 - - - - - - - -
20.05.2019 08:00:00 18,8 10,4 15 8 SW 1007,0 20 30
20.05.2019 07:00:00 - - - - - - - -
20.05.2019 06:00:00 - - - - - - - -
20.05.2019 05:00:00 - - - - - - - -
20.05.2019 04:00:00 - - - - - - - -
20.05.2019 03:00:00 - - - - - - - -
20.05.2019 02:00:00 - - - - - - - -
20.05.2019 01:00:00 - - - - - - - -
20.05.2019 00:00:00 - - - - - - - -
19.05.2019 23:00:00 - - - - - - - -
19.05.2019 22:00:00 - - - - - - - -
19.05.2019 21:00:00 - - - - - - - -
19.05.2019 20:00:00 20,0 18,3 5 3 N 1004,0 20 0
19.05.2019 19:00:00 - - - - - - - -
19.05.2019 18:00:00 - - - - - - - -
19.05.2019 17:00:00 20,2 18,0 8 4 N 1003,1 10 48
19.05.2019 16:00:00 - - - - - - - -
19.05.2019 15:00:00 - - - - - - - -
19.05.2019 14:00:00 19,0 17,1 15 8 N 1002,2 10 30
19.05.2019 13:00:00 - - - - - - - -
19.05.2019 12:00:00 - - - - - - - -
19.05.2019 11:00:00 19,8 17,6 5 3 NE 1003,1 10 60
19.05.2019 10:00:00 - - - - - - - -
19.05.2019 09:00:00 - - - - - - - -
19.05.2019 08:00:00 17,2 14,3 13 7 WNW 1003,1 20 18
19.05.2019 07:00:00 - - - - - - - -
19.05.2019 06:00:00 - - - - - - - -
19.05.2019 05:00:00 - - - - - - - -
19.05.2019 04:00:00 - - - - - - - -
19.05.2019 03:00:00 - - - - - - - -
19.05.2019 02:00:00 - - - - - - - -
19.05.2019 01:00:00 - - - - - - - -
19.05.2019 00:00:00 - - - - - - - -
18.05.2019 23:00:00 - - - - - - - -
18.05.2019 22:00:00 - - - - - - - -
18.05.2019 21:00:00 - - - - - - - -
18.05.2019 20:00:00 22,0 9,9 18 10 S 1004,3 25 0
18.05.2019 19:00:00 - - - - - - - -
18.05.2019 18:00:00 - - - - - - - -
18.05.2019 17:00:00 19,8 17,6 28 15 E 1004,1 15 18
18.05.2019 16:00:00 - - - - - - - -
18.05.2019 15:00:00 - - - - - - - -
18.05.2019 14:00:00 19,6 17,0 37 20 SE 1005,1 15 0
18.05.2019 13:00:00 - - - - - - - -
18.05.2019 12:00:00 - - - - - - - -
18.05.2019 11:00:00 18,2 15,6 34 18 SE 1005,2 20 0
18.05.2019 10:00:00 - - - - - - - -
18.05.2019 09:00:00 - - - - - - - -
18.05.2019 08:00:00 17,0 14,9 18 10 ESE 1005,8 20 0
18.05.2019 07:00:00 - - - - - - - -
18.05.2019 06:00:00 - - - - - - - -
18.05.2019 05:00:00 - - - - - - - -
18.05.2019 04:00:00 - - - - - - - -
18.05.2019 03:00:00 - - - - - - - -
18.05.2019 02:00:00 - - - - - - - -
18.05.2019 01:00:00 - - - - - - - -
18.05.2019 00:00:00 - - - - - - - -
17.05.2019 23:00:00 - - - - - - - -
17.05.2019 22:00:00 - - - - - - - -
17.05.2019 21:00:00 - - - - - - - -
17.05.2019 20:00:00 15,0 13,4 18 10 SE 1007,4 20 0
17.05.2019 19:00:00 - - - - - - - -
17.05.2019 18:00:00 - - - - - - - -
17.05.2019 17:00:00 19,8 17,2 22 12 E 1008,3 20 60
17.05.2019 16:00:00 - - - - - - - -
17.05.2019 15:00:00 - - - - - - - -
17.05.2019 14:00:00 19,0 16,0 21 11 E 1009,4 20 60
17.05.2019 13:00:00 - - - - - - - -
17.05.2019 12:00:00 - - - - - - - -
17.05.2019 11:00:00 17,2 14,7 15 8 E 1010,8 20 60
17.05.2019 10:00:00 - - - - - - - -
17.05.2019 09:00:00 - - - - - - - -
17.05.2019 08:00:00 14,6 12,6 0 0 N 1011,1 20 -
17.05.2019 07:00:00 - - - - - - - -
17.05.2019 06:00:00 - - - - - - - -
17.05.2019 05:00:00 - - - - - - - -
17.05.2019 04:00:00 - - - - - - - -
17.05.2019 03:00:00 - - - - - - - -
17.05.2019 02:00:00 - - - - - - - -
17.05.2019 01:00:00 - - - - - - - -
17.05.2019 00:00:00 - - - - - - - -
16.05.2019 23:00:00 - - - - - - - -
16.05.2019 22:00:00 - - - - - - - -
16.05.2019 21:00:00 - - - - - - - -
16.05.2019 20:00:00 17,6 14,7 5 3 N 1011,3 20 60
16.05.2019 19:00:00 - - - - - - - -
16.05.2019 18:00:00 - - - - - - - -
16.05.2019 17:00:00 16,8 14,4 15 8 N 1011,2 20 60
16.05.2019 16:00:00 - - - - - - - -
16.05.2019 15:00:00 - - - - - - - -
16.05.2019 14:00:00 16,6 13,9 29 16 NW 1011,4 10 60
16.05.2019 13:00:00 - - - - - - - -
16.05.2019 12:00:00 - - - - - - - -
16.05.2019 11:00:00 14,4 12,3 37 20 NW 1011,7 10 0
16.05.2019 10:00:00 - - - - - - - -
16.05.2019 09:00:00 - - - - - - - -
16.05.2019 08:00:00 13,8 11,3 39 21 WNW 1011,1 10 0
16.05.2019 07:00:00 - - - - - - - -
16.05.2019 06:00:00 - - - - - - - -
16.05.2019 05:00:00 - - - - - - - -
16.05.2019 04:00:00 - - - - - - - -
16.05.2019 03:00:00 - - - - - - - -
16.05.2019 02:00:00 - - - - - - - -
16.05.2019 01:00:00 - - - - - - - -
16.05.2019 00:00:00 - - - - - - - -
15.05.2019 23:00:00 - - - - - - - -
15.05.2019 22:00:00 - - - - - - - -
15.05.2019 21:00:00 - - - - - - - -
15.05.2019 20:00:00 14,4 11,0 8 4 N 1011,6 20 0
15.05.2019 19:00:00 - - - - - - - -
15.05.2019 18:00:00 - - - - - - - -
15.05.2019 17:00:00 14,8 11,8 8 4 N 1012,1 20 0
15.05.2019 16:00:00 - - - - - - - -

tt = temperature
td = dewpoint
ff = wind speed
dd = wind direction
ppp = reduced air pressure
vv = visibility
sd = sunshine duration

Next stations